Starlink 5661

operational
NORAD ID: 55343 Int'l Des: 2023-013 Owner: SPXS Country: US Constellation: starlink
LEOCIRCULAR

Über Starlink 5661

Beschreibung wird geladen...

Live-Position

3D-Globus wird geladen...

Nächste Überflüge

Höhenverlauf

Altitude vs Time

uPlot chart will show altitude changes over time

Zweizeiliger Elementsatz

1 55343U 23013N 25305.22199495 -.00001481 00000-0 -94589-4 0 9990
2 55343 43.0040 278.4645 0001377 271.8460 88.2225 15.02524741152382
Epoch: 1. Nov. 2025 • Age: 17 hours

Aktueller Status

Höhe 560.5 km
Geschwindigkeit 7.59 km/s
Subsatellitenpunkt 30.01°N, 47.18°E
Startdatum 26. Jan. 2023
Alter 2.7 years
Typ internet

Technische Details

Klassifizierung Payload
Masse 305.00 kg
Trockenmasse 290.00 kg
Gesamtmasse 305.00 kg
Länge 0.20 m
Durchmesser 2.80 m
Spannweite 9.00 m
Form Box + pan
Hersteller SPXS
Bus-Typ Starlink
Phasenstatus In Orbit
Besitzer/Staat SPXS/US

Große Konstellationen

Loading constellations...